Location: Ku?niki
(51.4449°N, 17.8974°E)
Time: 09:12:23
(UTC+00:00)

EO-79 - Pass Details

Date: 01 July 2022
Orbit: 588 x 603 km, 98.0° (Epoch: 09 August)

Event Time Altitude Azimuth Distance (km) Brightness Sun altitude
Rises 00:55:13 0° 12° (NNE) 2,855 ? -10.7°
Reaches altitude 10° 00:57:23 10° 10° (N) 1,951 ? -10.5°
Maximum altitude 01:01:36 71° 287° (WNW) 639 ? -10.2°
Enters shadow 01:05:17 13° 205° (SSW) 1,726 ? -9.9°
